星链-3072 (STARLINK-3072 )

导读

STARLINK-3072是美国SpaceX星链项目的卫星,于北京时间2021年9月14日发射入轨,属于星链低轨互联网星座组网卫星。星链计划旨在为全球提供高速低延迟互联网服务,该卫星承担天地组网链路,支撑星座的通信覆盖能力,是星链大规模部署进程中的一颗标准组网卫星。

基本信息
目录编号:
49153
目录名称:
STARLINK-3072
国际标识:
2021-082Z
轨道中心:
EARTH
卫星名称:
星链-3072
卫星全名:
星链-3072 (STARLINK-3072 )
卫星状态:
在轨 (已飞行1823 天)
发射日期:
2021-09-14 UTC
国别 :
美国 (US)
星等 :
--
该卫星已列入 空间交会检测服务 Space Conjunction Data Service (SCDS) ,当前飞行风险评估等级: 无高风险
轨道信息
数据来源 国际轨道数据
星历时间: 2026-09-11T10:14:31+0800
17小时前
查看轨道信息
半长轴: 6950.188km
偏心率: 0.0002805
轨道倾角: 69.999°
近地点辐角 261.770°
升交点赤经 146.989°
平近点角 98.314°
近地点: 570.101km
远地点: 574.001km
周期: 96.107分钟
每日圈数: 14.983316
详细信息
固有亮度:
5
最大亮度:
2.5
卫星平台:
Starlink v1.5
覆盖范围:
全球
运营商:
太空探索技术公司
运营商所在国:
美国
制造商(研发单位):
太空探索技术公司
制造商所在国:
美国
使用方式:
暂无
卫星简介
星链(Starlink)计划是由太空探索技术公司(SpaceX)提出的一个巨型低轨卫星互联网星座项目,计划在2019年至2024年间在太空搭建由约1.2万颗卫星组成的“星链”网络,其中1584颗将部署在地球上空550千米处的近地轨道,并从2020年开始工作。该卫星仍在工作。
2D轨道图
3D轨道图
轨道高度分析图
轨道倾角分析图
轨道综合分析图
查看轨道综合分析图
交会数据列表
事件ID 空间交会对象 最接近时刻(TCA) 交会距离 交会风险概率(CRP) 交会风险指数(CRI) 操作
CDM_260913-072804-915305-551923
2026-09-13T
07:28:37+0000
1.336 km
极远距离
9.578507E-6 低风险 0.55
与全量物体交会距离演化趋势
与全量物体交会风险概率演化趋势